Location: Buckland
(65.9785°N, 161.1281°W)
Time: 23:45:58
(UTC+00:00)

Transit 4A - Pass Details

Date: 30 November 2020
Orbit: 864 x 980 km, 66.8° (Epoch: 20 January)

Event Time Altitude Azimuth Distance (km) Brightness Sun altitude
Rises 20:09:01 0° 226° (SW) 3,665 11.2 -2.0°
Reaches altitude 10° 20:11:35 10° 224° (SW) 2,728 10.5 -1.8°
Maximum altitude 20:17:54 65° 145° (SE) 1,080 8.7 -1.5°
Drops below altitude 10° 20:24:15 10° 65° (ENE) 2,737 10.4 -1.1°
Sets 20:26:49 0° 63° (ENE) 3,679 11.1 -1.0°
